#timestamp,LO_Frequency,Hit,StdDev 
1584380195.2,286047094.8,P
1584380215.1,286047094.6,P
1584380216.0,286047094.6,P
1584380235.8,286047096.2,Y
1584380255.7,286047001.6,P
1584380275.5,286047004.1,N
1584380295.3,286047005.7,N
1584380315.2,286047005.0,N
1584380335.9,286047007.4,N
1584380355.7,286047006.2,N
1584380375.6,286047008.8,N
1584380395.4,286047008.0,N
1584380415.3,286047010.0,N
1584380435.1,286047012.0,N
1584380436.0,286047012.0,N
1584380455.8,286047013.8,N
1584380475.7,286047013.0,N
1584380495.5,286047015.2,N
1584380515.3,286047015.1,N
1584380535.2,286047016.4,N
1584380555.0,286047018.8,N
1584380555.9,286047018.8,N
1584380575.8,286047018.1,N
1584380595.6,286047017.8,N
1584380615.4,286047018.9,N
1584380635.3,286047023.4,N
1584380655.1,286047022.8,N
1584380675.8,286047025.2,N
1584380695.7,286047024.1,N
1584380715.5,286047027.6,N
1584380735.4,286047026.9,N
1584380755.2,286047029.8,N
1584380775.0,286047028.6,N
1584380775.9,286047028.6,N
1584380795.8,286047030.2,Y
1584380815.6,286047016.9,P
1584380835.4,286047015.8,P
1584380855.3,286047018.6,P
1584380875.1,286047017.6,Y
1584380895.9,286047004.4,P
1584380915.7,286047002.9,N
1584380935.5,286047007.3,N
1584380955.4,286047006.9,N
1584380975.2,286047006.6,N
1584380995.1,286047007.7,N
1584380996.0,286047007.7,N
1584381015.8,286047010.6,N
1584381035.6,286047014.0,Y
1584381055.5,286047005.8,P
1584381075.3,286047004.9,P
1584381095.1,286047008.7,P
1584381115.9,286047008.0,Y
1584381135.7,286047002.2,P
1584381155.6,286047003.8,N
1584381175.4,286047004.7,N
1584381195.2,286047004.9,N
1584381215.1,286047006.4,Y
1584381216.0,286047006.4,P
1584381235.8,286047003.7,P
1584381255.7,286047003.3,N
1584381275.5,286047005.5,Y
1584381295.3,286047000.7,P
1584381315.2,286047001.8,N
1584381335.0,286047003.9,N
1584381335.9,286047003.9,N
1584381355.8,286047005.4,Y
1584381375.6,286047001.9,P
1584381395.4,286047003.2,P
1584381415.3,286047005.5,P
1584381435.1,286047004.5,Y
1584381455.9,286047003.4,P
1584381475.7,286047005.5,P
1584381495.5,286047004.6,P
1584381515.4,286047007.4,Y
1584381535.2,286047002.0,P
1584381555.1,286047003.5,P
1584381556.0,286047003.5,P
1584381575.8,286047005.7,Y
1584381595.6,286047001.3,P
